Weather History for Grove, OK

Change the Weather History Date:

Wednesday, January 23, 2013

  Actual Average (KSLG) Record (KSLG)
Temperature  
Mean Temperature 42 °F -  
Max Temperature 59 °F 44 °F 71 °F (2002)
Min Temperature 24 °F 27 °F 6 °F (2003)
Degree Days  
Heating Degree Days 24    
Moisture  
Dew Point 34 °F    
Average Humidity 80    
Maximum Humidity 100    
Minimum Humidity 51    
Precipitation  
Precipitation 0.00 in - - ()
Sea Level Pressure  
Sea Level Pressure 30.22 in    
Wind  
Wind Speed 1 mph (WNW)    
Max Wind Speed 9 mph    
Max Gust Speed -    
Visibility 10 miles    
Events      
Averages and records for this station are not official NWS values.
T = Trace of Precipitation, MM = Missing Value Source: NWS Daily Summary

Daily Weather History Graph

Daily Weather History Graph

Search for Another Location

Airport:

Trip Planner

Search our weather history database for the weather conditions in past years. The results will help you decide how hot, cold, wet, or windy it might be!

Date:

Astronomy

Jan. 23, 2013 Rise Set
Actual Time 7:26 AM CST 5:35 PM CST
Civil Twilight 6:59 AM CST 6:03 PM CST
Nautical Twilight 6:27 AM CST 6:34 PM CST
Astronomical Twilight 5:56 AM CST 7:05 PM CST
Moon 2:47 PM CST (1/23) 4:37 AM CST (1/23)
Length of Visible Light 11h 04m
Length of Day
10h 08m
Waxing Gibbous, 89% of the Moon is Illuminated
Jan 23
Waxing Gibbous
Jan 26
Full
Feb 3
Last Quarter
Feb 10
New
Feb 17
First Quarter

Hourly Weather History & Observations

Time (CST) Temp. Windchill Dew Point Humidity Pressure Visibility Wind Dir Wind Speed Gust Speed Precip Events Conditions
12:15 AM 28.4 °F - 28.4 °F 100% 30.27 in 10.0 mi Calm Calm - N/A   Clear
12:35 AM 28.4 °F - 28.4 °F 100% 30.26 in - Calm Calm - N/A   Unknown
12:55 AM 26.6 °F - 26.6 °F 100% 30.26 in - Calm Calm - N/A   Unknown
1:15 AM 26.6 °F - 26.6 °F 100% 30.25 in - Calm Calm - N/A   Unknown
1:35 AM 26.6 °F - 26.6 °F 100% 30.25 in - Calm Calm - N/A   Unknown
1:55 AM 26.6 °F - 26.6 °F 100% 30.26 in - Calm Calm - N/A   Unknown
2:15 AM 26.6 °F - 26.6 °F 100% 30.25 in - Calm Calm - N/A   Unknown
2:35 AM 26.6 °F - 26.6 °F 100% 30.25 in - Calm Calm - N/A   Unknown
2:55 AM 26.6 °F - 26.6 °F 100% 30.26 in - Calm Calm - N/A   Unknown
3:15 AM 26.6 °F - 26.6 °F 100% 30.25 in 10.0 mi Calm Calm - N/A   Clear
3:35 AM 26.6 °F - 26.6 °F 100% 30.25 in 10.0 mi Calm Calm - N/A   Clear
3:55 AM 26.6 °F - 26.6 °F 100% 30.25 in - Calm Calm - N/A   Unknown
4:15 AM 26.6 °F - 26.6 °F 100% 30.25 in - Calm Calm - N/A   Unknown
4:35 AM 26.6 °F - 26.6 °F 100% 30.24 in - Calm Calm - N/A   Unknown
4:55 AM 26.6 °F - 26.6 °F 100% 30.24 in - Calm Calm - N/A   Unknown
5:15 AM 26.6 °F - 26.6 °F 100% 30.24 in - Calm Calm - N/A   Unknown
5:35 AM 26.6 °F 22.6 °F 26.6 °F 100% 30.23 in 10.0 mi East 3.5 mph - N/A   Clear
5:55 AM 24.8 °F - 24.8 °F 100% 30.24 in - Calm Calm - N/A   Unknown
6:15 AM 24.8 °F - 24.8 °F 100% 30.24 in - Calm Calm - N/A   Unknown
6:55 AM 26.6 °F - 26.6 °F 100% 30.25 in 10.0 mi Calm Calm - N/A   Clear
7:15 AM 26.6 °F - 26.6 °F 100% 30.25 in 10.0 mi Calm Calm - N/A   Clear
7:35 AM 26.6 °F - 26.6 °F 100% 30.25 in 7.0 mi Calm Calm - N/A   Clear
7:55 AM 26.6 °F - 26.6 °F 100% 30.26 in 7.0 mi Calm Calm - N/A   Clear
8:15 AM 28.4 °F - 28.4 °F 100% 30.25 in 10.0 mi Calm Calm - N/A   Clear
8:35 AM 30.2 °F - 30.2 °F 100% 30.25 in 10.0 mi Calm Calm - N/A   Clear
8:55 AM 32.0 °F - 32.0 °F 100% 30.25 in 10.0 mi Calm Calm - N/A   Clear
9:15 AM 33.8 °F - 32.0 °F 93% 30.26 in 10.0 mi Calm Calm - N/A   Clear
9:35 AM 35.6 °F - 32.0 °F 87% 30.26 in 10.0 mi Calm Calm - N/A   Clear
9:55 AM 37.4 °F - 32.0 °F 81% 30.26 in 10.0 mi Calm Calm - N/A   Clear
10:15 AM 42.8 °F - 33.8 °F 70% 30.26 in 10.0 mi Calm Calm - N/A   Clear
10:35 AM 46.4 °F - 33.8 °F 62% 30.26 in 10.0 mi Calm Calm - N/A   Clear
10:55 AM 50.0 °F - 35.6 °F 58% 30.25 in 10.0 mi SSW 4.6 mph - N/A   Clear
11:15 AM 51.8 °F - 37.4 °F 58% 30.25 in 10.0 mi SW 8.1 mph - N/A   Clear
11:35 AM 53.6 °F - 39.2 °F 58% 30.23 in 10.0 mi SW 8.1 mph - N/A   Clear
11:55 AM 53.6 °F - 39.2 °F 58% 30.23 in 10.0 mi WSW 9.2 mph - N/A   Clear
12:15 PM 55.4 °F - 39.2 °F 54% 30.21 in 10.0 mi West 4.6 mph - N/A   Clear
12:35 PM 55.4 °F - 39.2 °F 54% 30.20 in 10.0 mi West 5.8 mph - N/A   Clear
12:55 PM 55.4 °F - 39.2 °F 54% 30.19 in 10.0 mi WNW 4.6 mph - N/A   Clear
1:15 PM 55.4 °F - 41.0 °F 58% 30.18 in 10.0 mi Calm Calm - N/A   Clear
1:35 PM 55.4 °F - 41.0 °F 58% 30.17 in 10.0 mi WNW 4.6 mph - N/A   Clear
1:55 PM 55.4 °F - 41.0 °F 58% 30.17 in 10.0 mi NW 4.6 mph - N/A   Clear
2:15 PM 55.4 °F - 41.0 °F 58% 30.17 in 10.0 mi NW 5.8 mph - N/A   Clear
2:35 PM 57.2 °F - 41.0 °F 55% 30.16 in 10.0 mi West 3.5 mph - N/A   Clear
2:55 PM 59.0 °F - 41.0 °F 51% 30.17 in 10.0 mi West 6.9 mph - N/A   Clear
3:15 PM 59.0 °F - 41.0 °F 51% 30.16 in 10.0 mi West 3.5 mph - N/A   Clear
3:35 PM 59.0 °F - 41.0 °F 51% 30.16 in 10.0 mi Calm Calm - N/A   Clear
3:55 PM 59.0 °F - 41.0 °F 51% 30.16 in 10.0 mi Calm Calm - N/A   Clear
4:15 PM 59.0 °F - 41.0 °F 51% 30.16 in 10.0 mi Calm Calm - N/A   Clear
4:35 PM 57.2 °F - 41.0 °F 55% 30.15 in 10.0 mi North 3.5 mph - N/A   Clear
4:55 PM 59.0 °F - 41.0 °F 51% 30.15 in 10.0 mi Calm Calm - N/A   Clear
5:15 PM 57.2 °F - 41.0 °F 55% 30.16 in 10.0 mi Calm Calm - N/A   Clear
5:35 PM 53.6 °F - 41.0 °F 62% 30.16 in 10.0 mi Calm Calm - N/A   Clear
5:55 PM 50.0 °F - 41.0 °F 71% 30.16 in 10.0 mi Calm Calm - N/A   Clear
6:15 PM 50.0 °F - 41.0 °F 71% 30.16 in 10.0 mi Calm Calm - N/A   Clear
6:35 PM 46.4 °F - 39.2 °F 76% 30.17 in - Calm Calm - N/A   Clear
6:55 PM 42.8 °F - 37.4 °F 81% 30.19 in 10.0 mi Calm Calm - N/A   Clear
7:15 PM 42.8 °F - 39.2 °F 87% 30.20 in 10.0 mi Calm Calm - N/A   Clear
7:35 PM 41.0 °F - 37.4 °F 87% 30.21 in 10.0 mi Calm Calm - N/A   Clear
7:55 PM 41.0 °F - 37.4 °F 87% 30.21 in 10.0 mi Calm Calm - N/A   Clear
8:15 PM 41.0 °F - 37.4 °F 87% 30.22 in 7.0 mi Calm Calm - N/A   Clear
8:35 PM 41.0 °F - 37.4 °F 87% 30.21 in 7.0 mi Calm Calm - N/A   Clear
8:55 PM 39.2 °F - 37.4 °F 93% 30.23 in 7.0 mi Calm Calm - N/A   Clear
9:15 PM 41.0 °F - 41.0 °F 100% 30.23 in 7.0 mi Calm Calm - N/A   Clear
9:35 PM 37.4 °F - 37.4 °F 100% 30.24 in - Calm Calm - N/A   Unknown
9:55 PM 41.0 °F 39.0 °F 37.4 °F 87% 30.24 in - ENE 3.5 mph - N/A   Unknown
10:15 PM 41.0 °F - 37.4 °F 87% 30.25 in - Calm Calm - N/A   Unknown
10:35 PM 42.8 °F 39.3 °F 35.6 °F 76% 30.26 in - NE 5.8 mph - N/A   Clear
11:15 PM 44.6 °F 42.2 °F 32.0 °F 61% 30.27 in - ENE 4.6 mph - N/A   Overcast
11:55 PM 44.6 °F 40.2 °F 32.0 °F 61% 30.28 in - NE 8.1 mph - N/A   Overcast